Location: Bremen
(53.0793°N, 8.8017°E)
Time: 11:04:52
(UTC+02:00)

Transit 2A Rocket - Pass Details

Date: 28 June 2024
Orbit: 582 x 910 km, 66.7° (Epoch: 19 July)

Event Time Altitude Azimuth Distance (km) Brightness Sun altitude
Rises 04:01:00 0° 319° (NW) 3,482 8.6 -6.8°
Reaches altitude 10° 04:03:29 10° 321° (NW) 2,568 7.9 -6.6°
Maximum altitude 04:09:31 74° 47° (NE) 948 5.7 -6.0°
Drops below altitude 10° 04:15:37 10° 133° (SE) 2,586 7.7 -5.5°
Sets 04:18:07 0° 135° (SE) 3,508 8.3 -5.2°
